Weather History for St. Joseph, MO

Change the Weather History Date:

Sunday, February 3, 2013

  Actual Average Record
Temperature  
Mean Temperature 38 °F 29 °F  
Max Temperature 45 °F 39 °F 69 °F (1934)
Min Temperature 30 °F 19 °F -13 °F (2011)
Degree Days  
Heating Degree Days 27 36  
Month to date heating degree days 112 108  
Since 1 July heating degree days 3273 3491  
Cooling Degree Days 0 0  
Month to date cooling degree days 0 0  
Year to date cooling degree days 0 0  
Moisture  
Dew Point 22 °F    
Average Humidity 55    
Maximum Humidity 70    
Minimum Humidity 39    
Precipitation  
Precipitation 0.00 in 0.03 in 0.98 in (2012)
Month to date precipitation 0.00 0.08  
Year to date precipitation 0.64 0.64  
Sea Level Pressure  
Sea Level Pressure 30.12 in    
Wind  
Wind Speed 9 mph (WSW)    
Max Wind Speed 21 mph    
Max Gust Speed 29 mph    
Visibility 10 miles    
Events      
T = Trace of Precipitation, MM = Missing Value Source: NWS Daily Summary

Daily Weather History Graph

Daily Weather History Graph

Search for Another Location

Airport:

Trip Planner

Search our weather history database for the weather conditions in past years. The results will help you decide how hot, cold, wet, or windy it might be!

Date:

Astronomy

Feb. 03, 2013 Rise Set
Actual Time 7:25 AM CST 5:42 PM CST
Civil Twilight 6:57 AM CST 6:10 PM CST
Nautical Twilight 6:24 AM CST 6:42 PM CST
Astronomical Twilight 5:53 AM CST 7:14 PM CST
Moon 12:54 AM CST (2/3) 11:19 AM CST (2/3)
Length of Visible Light 11h 13m
Length of Day
10h 16m
Waning Gibbous, 48% of the Moon is Illuminated
Feb 3
Waning Gibbous
Feb 10
New
Feb 17
First Quarter
Feb 25
Full
Mar 4
Last Quarter

Hourly Weather History & Observations

Time (CST) Temp. Windchill Dew Point Humidity Pressure Visibility Wind Dir Wind Speed Gust Speed Precip Events Conditions
12:53 AM 37.0 °F 28.9 °F 28.0 °F 70% 30.16 in 10.0 mi WNW 12.7 mph - N/A   Clear
1:53 AM 37.0 °F 27.4 °F 27.0 °F 67% 30.18 in 10.0 mi NW 17.3 mph - N/A   Clear
2:53 AM 36.0 °F 26.7 °F 26.1 °F 67% 30.20 in 10.0 mi NW 15.0 mph - N/A   Clear
3:53 AM 35.1 °F 25.5 °F 24.1 °F 64% 30.21 in 10.0 mi NW 15.0 mph 24.2 mph N/A   Clear
4:53 AM 33.1 °F 23.4 °F 23.0 °F 66% 30.22 in 10.0 mi NW 13.8 mph 20.7 mph N/A   Clear
5:53 AM 32.0 °F 22.5 °F 19.9 °F 61% 30.24 in 10.0 mi NW 12.7 mph - N/A   Clear
6:53 AM 30.9 °F 22.2 °F 19.0 °F 61% 30.25 in 10.0 mi NNW 10.4 mph - N/A   Clear
7:53 AM 30.0 °F 21.7 °F 18.0 °F 61% 30.28 in 10.0 mi NNW 9.2 mph - N/A   Clear
8:53 AM 30.9 °F 22.2 °F 18.0 °F 59% 30.30 in 10.0 mi NW 10.4 mph - N/A   Clear
9:53 AM 33.1 °F 27.7 °F 17.1 °F 52% 30.28 in 10.0 mi NW 5.8 mph - N/A   Clear
10:53 AM 35.1 °F 32.2 °F 16.0 °F 46% 30.27 in 10.0 mi Variable 3.5 mph - N/A   Clear
11:53 AM 36.0 °F 33.3 °F 16.0 °F 44% 30.23 in 10.0 mi Variable 3.5 mph - N/A   Clear
12:53 PM 39.0 °F 32.3 °F 19.0 °F 45% 30.18 in 10.0 mi SSW 10.4 mph - N/A   Clear
1:53 PM 42.1 °F 37.1 °F 19.9 °F 41% 30.13 in 10.0 mi South 8.1 mph - N/A   Clear
2:53 PM 43.0 °F 37.7 °F 19.9 °F 40% 30.09 in 10.0 mi SSW 9.2 mph - N/A   Clear
3:53 PM 44.1 °F 38.6 °F 21.9 °F 42% 30.06 in 10.0 mi South 10.4 mph - N/A   Clear
4:53 PM 42.1 °F 37.1 °F 24.1 °F 49% 30.02 in 10.0 mi South 8.1 mph - N/A   Clear
5:53 PM 37.0 °F 31.0 °F 21.9 °F 54% 30.00 in 10.0 mi SSE 8.1 mph - N/A   Clear
6:53 PM 36.0 °F 29.6 °F 23.0 °F 59% 29.98 in 10.0 mi SSE 8.1 mph - N/A   Clear
7:53 PM 36.0 °F 33.3 °F 24.1 °F 62% 29.97 in 10.0 mi South 3.5 mph - N/A   Clear
8:53 PM 34.0 °F 27.2 °F 25.0 °F 70% 29.94 in 10.0 mi SSE 8.1 mph - N/A   Clear
9:53 PM 37.0 °F 30.4 °F 27.0 °F 67% 29.91 in 10.0 mi South 9.2 mph - N/A   Clear
10:53 PM 36.0 °F - 26.1 °F 67% 29.89 in 10.0 mi Calm Calm - N/A   Clear
11:53 PM 34.0 °F - 27.0 °F 75% 29.87 in 10.0 mi Calm Calm - N/A   Clear